Weather History for Yenbo, Saudi Arabia

Change the Weather History Date:

Monday, February 4, 2013

  Actual Average Record
Temperature  
Mean Temperature 71 °F -  
Max Temperature 89 °F 83 °F 93 °F (2009)
Min Temperature 53 °F 58 °F 51 °F (1997)
Cooling Degree Days 6    
Growing Degree Days 21 (Base 50)    
Moisture  
Dew Point 44 °F    
Average Humidity 43    
Maximum Humidity 82    
Minimum Humidity 4    
Precipitation  
Precipitation 0.00 in - - ()
Sea Level Pressure  
Sea Level Pressure 30.01 in    
Wind  
Wind Speed 6 mph ()    
Max Wind Speed 23 mph    
Max Gust Speed -    
Visibility 5.7 miles    
Events      
Averages and records for this station are not official NWS values.
T = Trace of Precipitation, MM = Missing Value Source: Averaged Metar Reports

Daily Weather History Graph

Daily Weather History Graph

Search for Another Location

Airport:

Trip Planner

Search our weather history database for the weather conditions in past years. The results will help you decide how hot, cold, wet, or windy it might be!

Date:

Astronomy

Feb. 04, 2013 Rise Set
Actual Time 7:07 AM AST 6:15 PM AST
Civil Twilight 6:44 AM AST 6:39 PM AST
Nautical Twilight 6:17 AM AST 7:06 PM AST
Astronomical Twilight 5:50 AM AST 7:33 PM AST
Moon 1:13 AM AST (2/4) 12:29 PM AST (2/4)
Length of Visible Light 11h 55m
Length of Day
11h 08m
Last Quarter, 41% of the Moon is Illuminated
Feb 4
Last Quarter
Feb 10
New
Feb 17
First Quarter
Feb 25
Full
Mar 5
Last Quarter

Hourly Weather History & Observations

Time (AST) Temp. Heat Index Dew Point Humidity Pressure Visibility Wind Dir Wind Speed Gust Speed Precip Events Conditions
12:00 AM 66 °F - 55 °F 60% 30.09 in 6 mi NW 5.8 mph - -  
12:00 AM 66.2 °F - 55.4 °F 68% 30.06 in - NW 5.8 mph - N/A   Clear
1:00 AM 62.6 °F - 51.8 °F 68% 30.06 in - Calm Calm - N/A   Clear
2:00 AM 60.8 °F - 50.0 °F 68% 30.04 in - Calm Calm - N/A   Clear
3:00 AM 60 °F - 50 °F 61% 30.04 in 6 mi Calm Calm - -  
3:00 AM 60.8 °F - 50.0 °F 68% 30.04 in - Calm Calm - N/A   Clear
4:00 AM 57.2 °F - 50.0 °F 77% 30.04 in - NNW 4.6 mph - N/A   Clear
5:00 AM 55.4 °F - 50.0 °F 82% 30.01 in - WNW 5.8 mph - N/A   Clear
6:00 AM 54 °F - 48 °F 74% 30.04 in 6 mi ENE 9.2 mph - -  
6:00 AM 53.6 °F - 48.2 °F 82% 30.04 in - ENE 9.2 mph - N/A   Clear
7:00 AM 53.6 °F - 44.6 °F 72% 30.04 in - ENE 11.5 mph - N/A   Clear
8:00 AM 60.8 °F - 33.8 °F 36% 30.04 in - NE 4.6 mph - N/A   Clear
9:00 AM 68 °F - 43 °F 29% 30.08 in 6 mi Calm Calm - -  
9:00 AM 68.0 °F - 42.8 °F 40% 30.06 in - Calm Calm - N/A   Clear
10:00 AM 78.8 °F - 28.4 °F 16% 30.06 in - ENE 16.1 mph - N/A   Clear
11:00 AM 82.4 °F - 24.8 °F 12% 30.04 in 5.0 mi ENE 23.0 mph - N/A   Clear
12:00 PM 85 °F - 21 °F 4% 30.04 in 5 mi ENE 18.4 mph - -   Blowing Sand
12:00 PM 84.2 °F - 21.2 °F 10% 30.04 in 5.0 mi ENE 18.4 mph - N/A   Clear
2:00 PM 89.6 °F - 24.8 °F 10% 29.98 in - ENE 9.2 mph - N/A   Clear
3:00 PM 90 °F - 28 °F 5% 29.98 in 6 mi East 6.9 mph - -  
3:00 PM 89.6 °F - 28.4 °F 11% 29.95 in - East 6.9 mph - N/A   Clear
4:00 PM 87.8 °F 85.7 °F 53.6 °F 31% 29.92 in - SSW 9.2 mph - N/A   Clear
5:00 PM 87.8 °F 85.7 °F 53.6 °F 31% 29.95 in - SSW 6.9 mph - N/A   Clear
6:00 PM 83 °F - 59 °F 34% 29.96 in 6 mi West 9.2 mph - -  
6:00 PM 82.4 °F 82.5 °F 59.0 °F 45% 29.95 in - West 9.2 mph - N/A   Clear
7:00 PM 80.6 °F 80.5 °F 55.4 °F 42% 29.95 in - West 6.9 mph - N/A   Clear
8:00 PM 75.2 °F - 51.8 °F 44% 29.95 in - NW 6.9 mph - N/A   Clear
9:00 PM 73 °F - 48 °F 30% 29.98 in 6 mi NW 4.6 mph - -  
9:00 PM 73.4 °F - 48.2 °F 41% 29.98 in - NW 4.6 mph - N/A   Clear
10:00 PM 69.8 °F - 50.0 °F 49% 29.98 in - NW 5.8 mph - N/A   Clear
11:00 PM 69.8 °F - 46.4 °F 43% 29.98 in - NNW 6.9 mph - N/A   Clear